Upstream stations:
SHEF ID: TIFM7 Elk River near Tiff City, Mo
STATION TYPE:
Regulating: Stage = 15.00, Flow = 21304
PRECIP STAGE STAGE(2) RIV-FLOW BAT-LOAD
in ft ft cfs volt
Ccp-Rev Ccp-Rev Ccp-Rev Ccp-Rev Ccp-Rev
(US/Central)
06/30 00:00 0.00 3.59 3.58 325 11.12
06/30 01:00 0.00 3.58 3.58 321 11.01
06/30 02:00 0.00 3.58 3.58 321 11.08
06/30 03:00 0.00 3.58 3.58 321 11.65
06/30 04:00 0.00 3.58 3.57 321 11.55
06/30 05:00 0.00 3.58 3.58 321 11.08
06/30 06:00 0.00 3.58 3.58 321 11.02
06/30 07:00 0.00 3.58 3.58 321 11.03
06/30 08:00 0.00 3.57 3.58 317 11.25
06/30 09:00 0.00 3.57 3.58 317 12.13
06/30 10:00 0.00 3.57 3.59 317 12.01
06/30 11:00 0.00 3.58 3.56 321 12.06
06/30 12:00 0.00 3.58 3.57 321 12.77
06/30 13:00 0.00 3.58 3.58 321 12.05
06/30 14:00 0.00 3.57 3.58 317 12.67
06/30 15:00 0.00 3.58 3.56 321 11.78
06/30 16:00 0.00 3.57 3.57 317 11.71
06/30 17:00 0.00 3.57 3.56 317 11.68
06/30 18:00 0.00 3.57 3.57 317 11.75
06/30 19:00 0.00 3.56 3.55 313 12.18
06/30 20:00 0.00 3.56 3.56 313 11.66
06/30 21:00 0.00 3.56 3.55 313 11.28
06/30 22:00 0.00 3.56 3.55 313 11.48
06/30 23:00 0.00 3.56 3.55 313 11.03